TimeCDT,TemperatureF,Dew PointF,Humidity,Sea Level PressureIn,VisibilityMPH,Wind Direction,Wind SpeedMPH,Gust SpeedMPH,PrecipitationIn,Events,Conditions,WindDirDegrees,DateUTC
12:15 AM,77.0,73.4,89,30.00,10.0,SSE,12.7,18.4,N/A,,Scattered Clouds,160,2012-10-10 05:15:00
12:35 AM,77.0,73.4,89,29.99,10.0,SSE,15.0,-,N/A,,Scattered Clouds,160,2012-10-10 05:35:00
12:55 AM,78.8,73.4,83,29.99,10.0,SSE,13.8,17.3,N/A,,Scattered Clouds,160,2012-10-10 05:55:00
1:15 AM,78.8,73.4,83,29.99,10.0,SSE,16.1,-,N/A,,Scattered Clouds,160,2012-10-10 06:15:00
1:35 AM,78.8,73.4,83,29.99,10.0,SSE,13.8,19.6,N/A,,Clear,160,2012-10-10 06:35:00
1:55 AM,78.8,73.4,83,29.99,10.0,SSE,13.8,19.6,N/A,,Clear,160,2012-10-10 06:55:00
2:15 AM,78.8,73.4,83,29.99,10.0,South,11.5,-,N/A,,Clear,170,2012-10-10 07:15:00
2:35 AM,78.8,73.4,83,29.98,10.0,South,10.4,17.3,N/A,,Clear,170,2012-10-10 07:35:00
2:55 AM,78.8,73.4,83,29.98,10.0,SSE,13.8,-,N/A,,Clear,160,2012-10-10 07:55:00
3:15 AM,78.8,73.4,83,29.97,10.0,SSE,13.8,18.4,N/A,,Clear,160,2012-10-10 08:15:00
3:35 AM,78.8,75.2,89,29.97,10.0,South,11.5,-,N/A,,Clear,170,2012-10-10 08:35:00
3:55 AM,78.8,73.4,83,29.97,10.0,South,11.5,-,N/A,,Clear,170,2012-10-10 08:55:00
4:15 AM,78.8,75.2,89,29.96,10.0,South,11.5,16.1,N/A,,Clear,170,2012-10-10 09:15:00
4:35 AM,78.8,75.2,89,29.96,10.0,South,11.5,-,N/A,,Clear,170,2012-10-10 09:35:00
4:55 AM,77.0,75.2,94,29.96,7.0,South,9.2,-,N/A,,Clear,170,2012-10-10 09:55:00
5:15 AM,77.0,75.2,94,29.97,7.0,South,6.9,-,N/A,,Clear,170,2012-10-10 10:15:00
5:35 AM,78.8,75.2,89,29.98,10.0,South,9.2,-,N/A,,Clear,170,2012-10-10 10:35:00
5:55 AM,78.8,75.2,89,29.99,10.0,SSE,6.9,-,N/A,,Clear,160,2012-10-10 10:55:00
6:15 AM,77.0,75.2,94,30.00,7.0,SSE,5.8,-,N/A,,Scattered Clouds,160,2012-10-10 11:15:00
6:35 AM,77.0,75.2,94,30.01,7.0,SSE,3.5,-,N/A,,Mostly Cloudy,160,2012-10-10 11:35:00
6:55 AM,77.0,75.2,94,30.01,5.0,SSE,3.5,-,N/A,,Scattered Clouds,150,2012-10-10 11:55:00
7:15 AM,77.0,75.2,94,30.02,5.0,Calm,Calm,-,N/A,,Mostly Cloudy,0,2012-10-10 12:15:00
7:35 AM,77.0,75.2,94,30.03,5.0,Calm,Calm,-,N/A,,Mostly Cloudy,0,2012-10-10 12:35:00
7:55 AM,77.0,75.2,94,30.03,3.0,Calm,Calm,-,N/A,,Scattered Clouds,0,2012-10-10 12:55:00
8:35 AM,77.0,75.2,94,30.04,4.0,Calm,Calm,-,N/A,,Scattered Clouds,0,2012-10-10 13:35:00
8:55 AM,77.0,75.2,94,30.05,5.0,Calm,Calm,-,N/A,,Mostly Cloudy,0,2012-10-10 13:55:00
9:15 AM,80.6,77.0,89,30.06,10.0,SE,4.6,-,N/A,,Mostly Cloudy,130,2012-10-10 14:15:00
9:35 AM,80.6,77.0,89,30.07,10.0,SE,6.9,-,N/A,,Mostly Cloudy,130,2012-10-10 14:35:00
9:55 AM,82.4,77.0,84,30.07,10.0,SE,5.8,-,N/A,,Scattered Clouds,130,2012-10-10 14:55:00
10:15 AM,82.4,77.0,84,30.08,10.0,SE,5.8,-,N/A,,Scattered Clouds,140,2012-10-10 15:15:00
10:35 AM,84.2,77.0,79,30.08,10.0,SSE,6.9,-,N/A,,Clear,150,2012-10-10 15:35:00
10:55 AM,80.6,77.0,89,30.09,10.0,SSE,3.5,-,N/A,,Scattered Clouds,160,2012-10-10 15:55:00
11:15 AM,82.4,77.0,84,30.09,10.0,SSE,8.1,-,N/A,,Mostly Cloudy,150,2012-10-10 16:15:00
11:55 AM,82.4,69.8,66,30.08,10.0,SE,8.1,-,N/A,,Mostly Cloudy,130,2012-10-10 16:55:00
12:15 PM,82.4,71.6,70,30.08,10.0,SE,10.4,16.1,N/A,,Mostly Cloudy,130,2012-10-10 17:15:00
12:35 PM,80.6,69.8,70,30.08,10.0,SE,9.2,-,N/A,,Mostly Cloudy,130,2012-10-10 17:35:00
12:55 PM,78.8,69.8,74,30.06,7.0,SE,9.2,-,N/A,Rain,Rain,140,2012-10-10 17:55:00
1:15 PM,80.6,69.8,70,30.05,10.0,ESE,6.9,-,N/A,,Overcast,110,2012-10-10 18:15:00
1:35 PM,82.4,68.0,62,30.04,10.0,SSE,8.1,-,N/A,,Mostly Cloudy,150,2012-10-10 18:35:00
1:55 PM,82.4,71.6,70,30.04,10.0,ESE,6.9,-,N/A,,Mostly Cloudy,120,2012-10-10 18:55:00
2:15 PM,82.4,73.4,74,30.02,10.0,ESE,8.1,-,N/A,,Mostly Cloudy,120,2012-10-10 19:15:00
2:35 PM,82.4,73.4,74,30.02,10.0,SE,9.2,-,N/A,,Scattered Clouds,130,2012-10-10 19:35:00
2:55 PM,82.4,73.4,74,30.01,10.0,ESE,10.4,-,N/A,,Scattered Clouds,120,2012-10-10 19:55:00
3:15 PM,82.4,71.6,70,30.02,10.0,ESE,10.4,-,N/A,,Scattered Clouds,110,2012-10-10 20:15:00
3:35 PM,84.2,71.6,66,30.02,10.0,East,11.5,-,N/A,,Clear,90,2012-10-10 20:35:00
3:55 PM,82.4,73.4,74,30.02,10.0,East,11.5,-,N/A,,Clear,100,2012-10-10 20:55:00
4:15 PM,82.4,73.4,74,30.02,10.0,East,15.0,19.6,N/A,,Scattered Clouds,90,2012-10-10 21:15:00
4:35 PM,80.6,73.4,79,30.01,10.0,East,15.0,-,N/A,,Scattered Clouds,100,2012-10-10 21:35:00
4:55 PM,80.6,73.4,79,30.01,10.0,East,16.1,23.0,N/A,,Clear,80,2012-10-10 21:55:00
5:15 PM,80.6,73.4,79,30.01,10.0,East,16.1,23.0,N/A,,Clear,80,2012-10-10 22:15:00
5:35 PM,80.6,73.4,79,30.01,10.0,East,19.6,24.2,N/A,,Clear,100,2012-10-10 22:35:00
5:55 PM,78.8,73.4,83,30.01,10.0,East,17.3,23.0,N/A,,Clear,100,2012-10-10 22:55:00
6:15 PM,78.8,71.6,78,30.01,10.0,ESE,13.8,21.9,N/A,,Clear,110,2012-10-10 23:15:00
6:35 PM,78.8,71.6,78,30.01,10.0,ESE,12.7,19.6,N/A,,Clear,110,2012-10-10 23:35:00
6:55 PM,78.8,71.6,78,30.02,10.0,ESE,13.8,21.9,N/A,,Clear,120,2012-10-10 23:55:00
7:15 PM,78.8,73.4,83,30.02,10.0,ESE,13.8,-,N/A,,Clear,110,2012-10-11 00:15:00
7:35 PM,77.0,73.4,89,30.03,10.0,ESE,16.1,24.2,N/A,,Clear,110,2012-10-11 00:35:00
7:55 PM,78.8,73.4,83,30.04,10.0,ESE,16.1,23.0,N/A,,Scattered Clouds,110,2012-10-11 00:55:00
8:15 PM,78.8,73.4,83,30.05,10.0,ESE,15.0,18.4,N/A,,Scattered Clouds,110,2012-10-11 01:15:00
8:35 PM,78.8,73.4,83,30.06,10.0,ESE,13.8,20.7,N/A,,Clear,110,2012-10-11 01:35:00
8:55 PM,78.8,75.2,89,30.06,10.0,ESE,15.0,20.7,N/A,,Clear,110,2012-10-11 01:55:00
9:15 PM,78.8,73.4,83,30.06,10.0,ESE,15.0,24.2,N/A,,Clear,120,2012-10-11 02:15:00
9:35 PM,78.8,75.2,89,30.06,10.0,SE,16.1,20.7,N/A,,Clear,130,2012-10-11 02:35:00
9:55 PM,78.8,73.4,83,30.06,10.0,SE,12.7,20.7,N/A,,Clear,140,2012-10-11 02:55:00
10:15 PM,78.8,73.4,83,30.06,10.0,SE,15.0,-,N/A,,Clear,130,2012-10-11 03:15:00
10:35 PM,78.8,73.4,83,30.06,10.0,SE,12.7,19.6,N/A,,Clear,140,2012-10-11 03:35:00
10:55 PM,78.8,71.6,78,30.06,10.0,SE,11.5,17.3,N/A,,Clear,140,2012-10-11 03:55:00
11:15 PM,78.8,73.4,83,30.06,10.0,SE,15.0,-,N/A,,Clear,140,2012-10-11 04:15:00
11:35 PM,78.8,73.4,83,30.06,10.0,SE,11.5,-,N/A,,Clear,140,2012-10-11 04:35:00
11:55 PM,78.8,73.4,83,30.06,10.0,SE,10.4,-,N/A,,Clear,140,2012-10-11 04:55:00